Location: Unspecified
(0.0000°N, 0.0000°E)
Time: 09:21:58
(UTC+02:00)

Cosmos 1933 - Visible Passes

Search period start: 26 April 2018 00:00
Search period end: 06 May 2018 00:00
Orbit: 549 x 563 km, 82.5° (Epoch: 25 April)

Date Brightness Start Highest point End Pass type
(mag) Time Alt. Az. Time Alt. Az. Time Alt. Az.
01 May 6.1 21:58:37 11° N 21:58:37 11° N 21:58:51 10° N visible
02 May 5.0 21:54:15 29° NNW 21:54:15 29° NNW 21:56:26 10° N visible
03 May 4.4 21:49:06 35° SW 21:50:08 43° W 21:53:59 10° NNW visible
04 May 4.9 21:44:04 10° SSW 21:47:46 35° W 21:51:29 10° NNW visible
05 May 5.3 21:41:54 10° SSW 21:45:25 29° W 21:48:57 10° NNW visible
